Flight Track Log - Related Links

Times and Time Zones

All times are in EDT time to prevent confusion due to time zone crossing. See the AWI3758 flight status page for this flight to view local times or setup timezone preferences in your user account.


Time Position Orientation Groundspeed Altitude Reporting Facility
EDT Latitude Longitude Course Direction KTS MPH feet Rate Location/Type
Fri 02:50:16 PM 35.1892 -80.9508 52° Northeast 176 203 1,500  Level Atlanta Center
Fri 02:50:40 PM 35.1683 -80.9517 182° South 170 196 2,000 1,412 Climbing Atlanta Center
Fri 02:51:41 PM 35.1061 -80.9744 197° South 261 300 3,500 1,945 Climbing Atlanta Center
Fri 02:52:00 PM 35.0976 -81.1571 287° West  Level FlightAware Approximate
Fri 02:53:00 PM 35.1556 -81.2167 North  Level FlightAware Approximate
Fri 02:53:05 PM 35.1028 -81.0939 268° West 289 333 6,700  Level Atlanta Center
Fri 02:54:00 PM 35.2516 -81.2167 North  Level FlightAware Approximate
Fri 02:54:05 PM 35.1761 -81.1039 354° North 227 261 9,100  Level Atlanta Center
Fri 02:55:00 PM 35.3060 -81.1311 52° Northeast  Level FlightAware Approximate
Fri 02:55:05 PM 35.2525 -81.0631 24° Northeast 257 296 11,500  Level Atlanta Center
Fri 02:56:05 PM 35.3308 -81.0247 22° Northeast 289 333 13,700 1,250 Climbing Atlanta Center
Fri 02:57:05 PM 35.4153 -80.9808 23° Northeast 310 357 14,000 150 Climbing Atlanta Center
Fri 02:58:05 PM 35.5186 -80.9489 14° North 355 409 14,000  Level Atlanta Center
Fri 02:59:05 PM 35.6264 -80.9167 14° North 383 441 14,000 400 Level Atlanta Center
Fri 03:00:05 PM 35.7342 -80.8869 13° North 394 453 14,800 1,100 Climbing Atlanta Center
Fri 03:01:05 PM 35.8422 -80.8725 North 388 447 16,200 1,400 Climbing Atlanta Center
Fri 03:02:05 PM 35.9483 -80.8581 North 388 447 17,600 1,250 Climbing Atlanta Center
Fri 03:03:05 PM 36.0583 -80.8411 North 388 447 18,700 1,250 Climbing Atlanta Center
Fri 03:04:05 PM 36.1686 -80.8289 North 395 455 20,100 1,400 Climbing Atlanta Center
Fri 03:05:05 PM 36.2747 -80.8169 North 390 449 21,500 1,150 Climbing Atlanta Center
Fri 03:06:05 PM 36.3722 -80.8028 North 384 442 22,400 1,000 Climbing Atlanta Center
Fri 03:07:05 PM 36.4778 -80.7753 12° North 389 448 23,500 1,100 Climbing Atlanta Center
Fri 03:08:05 PM 36.5836 -80.7503 11° North 384 442 24,600 1,050 Climbing Atlanta Center
Fri 03:09:05 PM 36.6894 -80.7278 10° North 392 451 25,600 1,050 Climbing Atlanta Center
Fri 03:10:05 PM 36.7908 -80.7053 10° North 382 440 26,700 1,000 Climbing Atlanta Center
Fri 03:11:05 PM 36.8944 -80.6803 11° North 382 440 27,600 800 Climbing Atlanta Center
Fri 03:12:05 PM 36.9981 -80.6603 North 377 434 28,300 711 Climbing Atlanta Center
Fri 03:14:19 PM 37.2300 -80.5508 21° North 383 441 29,900 688 Climbing Washington Center
Fri 03:15:17 PM 37.3283 -80.4969 24° Northeast 389 448 30,500 559 Climbing Washington Center
Fri 03:16:17 PM 37.4314 -80.4722 11° North 378 435 31,000 446 Climbing Washington Center
Fri 03:17:18 PM 37.5344 -80.4528 North 372 428 31,400 443 Climbing Washington Center
Fri 03:18:19 PM 37.6378 -80.4278 11° North 372 428 31,900 504 Climbing Washington Center
Fri 03:19:17 PM 37.7303 -80.4100 North 377 434 32,400 504 Climbing Washington Center
Fri 03:20:18 PM 37.8353 -80.3881 North 372 428 32,900 295 Climbing Washington Center
Fri 03:21:19 PM 37.9364 -80.3656 10° North 372 428 33,000 50 Climbing Washington Center
Fri 03:22:17 PM 38.0419 -80.3378 12° North 372 428 33,000  Level Washington Center
Fri 03:23:17 PM 38.1553 -80.3133 10° North 372 428 33,000  Level Washington Center
Fri 03:24:17 PM 38.2606 -80.2936 North 372 428 33,000  Level Washington Center
Fri 03:25:18 PM 38.3658 -80.2683 11° North 372 428 33,000  Level Washington Center
Fri 03:26:19 PM 38.4689 -80.2458 10° North 372 428 33,000  Level Washington Center
Fri 03:27:19 PM 38.5742 -80.2206 11° North 372 428 33,000  Level Washington Center
Fri 03:28:17 PM 38.6708 -80.2000 North 372 428 33,000  Level Washington Center
Fri 03:29:18 PM 38.7758 -80.1772 10° North 372 428 33,000  Level Washington Center
Fri 03:32:45 PM 39.1553 -80.0825 11° North 393 452 33,000  Level Cleveland Center
Fri 03:33:45 PM 39.2592 -80.0575 11° North 388 447 33,000  Level Cleveland Center
Fri 03:34:45 PM 39.3675 -80.0328 10° North 388 447 33,000  Level Cleveland Center
Fri 03:35:45 PM 39.4736 -80.0075 10° North 388 447 33,000  Level Cleveland Center
Fri 03:36:45 PM 39.5778 -79.9853 North 388 447 33,000  Level Cleveland Center
Fri 03:37:45 PM 39.6839 -79.9600 10° North 388 447 33,000  Level Cleveland Center
Fri 03:38:45 PM 39.7881 -79.9347 11° North 388 447 33,000  Level Cleveland Center
Fri 03:39:45 PM 39.8922 -79.9119 10° North 383 441 33,000  Level Cleveland Center
Fri 03:40:45 PM 40.0006 -79.8867 10° North 383 441 33,000  Level Cleveland Center
Fri 03:41:45 PM 40.1044 -79.8611 11° North 383 441 33,000  Level Cleveland Center
Fri 03:42:45 PM 40.2106 -79.8381 North 383 441 33,000  Level Cleveland Center
Fri 03:43:45 PM 40.3125 -79.8097 12° North 383 441 33,000  Level Cleveland Center
Fri 03:44:45 PM 40.4189 -79.7867 North 383 441 33,000  Level Cleveland Center
Fri 03:45:45 PM 40.5250 -79.7608 10° North 383 441 33,000  Level Cleveland Center
Fri 03:46:45 PM 40.6289 -79.7350 11° North 383 441 33,000 -50 Level Cleveland Center
Fri 03:47:45 PM 40.7331 -79.7117 10° North 388 447 32,900 -500 Descending Cleveland Center
Fri 03:48:45 PM 40.8392 -79.6828 12° North 394 453 32,000 -450 Descending Cleveland Center
Fri 03:49:45 PM 40.9389 -79.6594 10° North 394 453 32,000  Level Cleveland Center
Fri 03:50:45 PM 41.0472 -79.6333 10° North 389 448 32,000  Level Cleveland Center
Fri 03:51:45 PM 41.1575 -79.6069 10° North 389 448 32,000  Level Cleveland Center
Fri 03:52:45 PM 41.2636 -79.5803 11° North 389 448 32,000  Level Cleveland Center
Fri 03:53:45 PM 41.3739 -79.5539 10° North 389 448 32,000  Level Cleveland Center
Fri 03:54:45 PM 41.4819 -79.5272 10° North 389 448 32,000 -250 Level Cleveland Center
Fri 03:55:45 PM 41.5942 -79.5031 North 394 453 31,500 -900 Descending Cleveland Center
Fri 03:56:45 PM 41.7044 -79.4733 11° North 394 453 30,200 -1,300 Descending Cleveland Center
Fri 03:57:45 PM 41.8167 -79.4436 11° North 401 461 28,900 -1,300 Descending Cleveland Center
Fri 03:58:45 PM 41.9292 -79.4194 North 407 468 27,600 -1,300 Descending Cleveland Center
Fri 03:59:45 PM 42.0433 -79.3894 11° North 412 474 26,300 -1,300 Descending Cleveland Center
Fri 04:00:45 PM 42.1536 -79.3619 10° North 412 474 25,000 -1,300 Descending Cleveland Center
Fri 04:01:45 PM 42.2658 -79.3319 11° North 412 474 23,700 -1,000 Descending Cleveland Center
Fri 04:02:45 PM 42.3761 -79.3072 North 412 474 23,000 -700 Descending Cleveland Center
Fri 04:03:45 PM 42.4903 -79.2767 11° North 412 474 22,300 -1,100 Descending Cleveland Center
Fri 04:04:45 PM 42.5967 -79.2858 356° North 396 456 20,800 -1,500 Descending Cleveland Center
Fri 04:05:45 PM 42.6969 -79.2922 357° North 370 426 19,300 -1,300 Descending Cleveland Center
Fri 04:06:45 PM 42.7928 -79.3044 355° North 363 418 18,200 -1,300 Descending Cleveland Center
Fri 04:07:45 PM 42.8908 -79.3108 357° North 353 406 16,700 -1,631 Descending Cleveland Center
Fri 04:08:28 PM 42.9667 -79.2833 15° North 350 403 15,400 -1,573 Descending Toronto Center
Fri 04:09:28 PM 43.0500 -79.3167 344° North 330 380 14,000 -1,500 Descending Toronto Center
Fri 04:10:28 PM 43.1333 -79.3167 360° North 320 368 12,400 -1,600 Descending Toronto Center

Login

Don't have an account? Register now (free) for customized features, flight alerts, and more!